Location: Cicognara
(44.9500°N, 10.4667°E)
Time: 15:33:00
(UTC+00:00)

FALCON 9 DEB - Pass Details

Date: 20 June 2021
Orbit: 422 x 432 km, 53.0° (Epoch: 02 August)

Event Time Altitude Azimuth Distance (km) Brightness Sun altitude
Rises 19:56:40 0° 248° (WSW) 2,394 7.2 -7.4°
Reaches altitude 10° 19:58:48 10° 253° (WSW) 1,528 6.3 -7.7°
Maximum altitude 20:02:11 54° 332° (NNW) 530 4.0 -8.1°
Drops below altitude 10° 20:05:33 10° 51° (NE) 1,528 5.8 -8.5°
Sets 20:07:42 0° 56° (ENE) 2,395 6.8 -8.8°
